{"data":{"norad_id":55603,"intl_designator":"2023-020AL","name":"STARLINK-5735","alt_names":[],"object_type":"PAYLOAD","status":"ACTIVE","operator":null,"country":"US","launch_date":"2023-02-12","launch_site_code":"AFETR","launch_vehicle":null,"mission":null,"orbit_class":"UNKNOWN","rcs_meters":null,"size_class":null,"mass_kg":null,"dimensions":null,"purposes":["comms"],"wikipedia_slug":null,"has_3d_model":false,"image_url":null,"decayed_at":null,"tle_current":{"epoch":"2026-05-24T19:33:31.127040Z","epoch_age_seconds":85059,"freshness":"FRESH","line1":"1 55603U 23020AL  26144.81494360 -.00001108  00000+0 -30729-4 0  9994","line2":"2 55603  43.0009 284.1526 0001195 278.6472  81.4244 15.27582295180689","mean_motion":15.27582295,"eccentricity":0.0001195,"inclination_deg":43.0009,"raan_deg":284.1526,"arg_perigee_deg":278.6472,"mean_anomaly_deg":81.4244,"bstar":-3.0729e-5,"rev_number":18068,"period_min":94.266607089735,"perigee_km":482.22231307537,"apogee_km":483.8621349099,"semimajor_km":6861.1792239926,"source":"CELESTRAK","updated_at":"2026-05-25T13:38:17.841902Z"}}}